MONITOR-4 (RS57S)

Last updated on Mon Sep 15 2025 00:03:09 GMT+0000 (Coordinated Universal Time)

1 57182U 23091S 25257.19558536 .00006614 00000+0 30318-3 0 9995 2 57182 97.5502 314.2926 0013099 355.8610 4.2515 15.20728289122242
UTC large
Height (km)
Speed (km/s)
/
Latitude / Longitude
Inclination (degrees)
Orbital Period (minutes)
Azimuth
Elevation
Range (km)
Doppler Factor

Next 0 passes for location: London (51.5072 / 0.1276)

Sorry there are no passes over London.